User: anonymous   Login
Location: Unspecified
(0.0000°N, 0.0000°E)
Time: 09:35:28
(UTC+02:00)
Language:

Cosmos 1733 Rocket - Orbit

View from above orbital plane
View from above orbital plane
View from above satellite
View from above satellite

Ground track
Ground track

The orbit data is extracted from the following two-line orbital elements,

1 16612U 86018B   17290.33790630  .00000109  00000-0  10087-4 0  9999
2 16612  82.5189 181.8296 0019170 108.3120   9.6071 14.84167859609572
Epoch (UTC): 17 October 2017 08:06:35
Eccentricity: 0.0019170
inclination: 82.5189°
perigee height: 603 km
apogee height: 629 km
right ascension of ascending node: 181.8296°
argument of perigee: 108.3120°
revolutions per day: 14.84167859
mean anomaly at epoch: 9.6071°
orbit number at epoch: 60957

The dashed part of the orbit path shows where the satellite is in the earth's shadow,  

DLR